Theta_e
278 278 278 278 279 279 279 279 276 273 274 276 277 280 279 278 279 278 278 280 283 284 285 286 288 289 290 291 292 294 295 296 297 298 299 300 301 301
278 278 278 278 278 278 279 278 277 274 272 275 277 277 277 277 278 277 277 280 280 282 284 285 287 288 289 290 291 292 293 294 295 296 297 298 299 300
278 278 277 278 277 276 276 275 275 275 272 273 275 275 275 274 275 276 276 276 277 281 283 285 287 287 287 288 289 290 291 292 293 294 295 296 298 299
277 277 276 276 274 274 274 273 273 274 272 270 272 272 273 273 274 274 275 277 277 280 283 285 285 285 286 287 287 288 288 289 290 291 292 293 295 296
277 276 275 274 272 272 272 271 271 273 271 270 270 272 272 273 273 275 275 276 278 280 282 282 283 284 284 285 286 286 286 286 287 288 289 291 292 294
277 276 274 274 273 271 271 271 271 270 270 270 270 270 271 274 274 274 274 276 275 277 279 280 281 282 283 284 284 283 284 284 285 286 287 288 289 291
275 275 274 274 276 274 271 270 270 268 268 268 269 270 272 273 273 274 273 274 275 277 277 277 278 278 279 281 281 282 283 284 285 286 286 287 288 289
274 274 273 274 277 278 277 276 272 266 262 264 271 271 273 273 274 273 273 272 271 277 275 274 275 275 276 278 281 283 284 285 285 286 286 286 287 288
274 273 272 273 274 275 278 277 277 277 274 272 272 273 273 273 274 273 274 274 273 274 272 270 273 272 275 276 280 281 282 283 283 284 285 286 287 288
274 274 273 272 273 274 275 275 275 275 275 275 274 274 274 275 275 276 275 271 271 272 273 268 272 271 273 274 279 280 281 281 282 284 285 286 286 288
274 274 274 273 275 277 273 271 272 273 276 278 279 280 280 279 278 271 264 262 264 268 271 269 270 271 272 272 274 279 279 281 281 282 283 285 286 287
273 274 276 274 277 278 272 270 268 271 273 271 273 274 274 272 274 272 266 259 264 262 272 269 269 269 268 271 273 273 273 276 278 279 280 281 282 282
272 272 273 278 278 280 277 272 271 273 272 268 268 268 269 269 269 270 271 269 265 265 271 271 268 268 267 267 270 272 272 273 273 275 277 279 280 282
272 273 273 278 279 280 279 277 278 271 263 261 260 263 266 267 268 270 270 271 271 270 272 271 268 268 266 266 267 271 272 273 273 272 274 277 280 281
274 274 276 279 279 279 280 279 273 266 263 258 261 264 266 268 269 269 269 269 269 270 271 271 269 269 269 267 267 269 270 270 271 271 271 271 272 274
275 275 276 278 279 273 275 274 269 267 265 264 264 266 267 266 266 267 265 266 264 265 269 270 270 270 268 269 269 267 269 267 270 270 270 271 272 274
273 273 274 271 269 267 267 266 266 266 265 264 264 264 264 264 264 266 265 264 262 262 264 266 269 271 271 270 266 267 267 267 269 269 269 268 270 271
272 271 269 268 267 266 265 264 265 265 265 265 264 263 263 262 262 263 263 262 261 262 263 264 266 266 266 268 272 267 268 268 269 269 269 267 268 271
270 268 267 266 266 266 265 264 264 264 264 263 263 262 262 261 261 261 261 262 261 262 262 264 264 263 261 260 267 273 268 268 268 267 268 268 267 269
268 267 266 265 265 264 263 263 263 262 262 261 261 259 257 257 257 258 259 259 260 261 262 263 263 263 263 262 262 266 272 268 268 267 267 269 270 273
267 266 265 264 263 263 262 261 260 259 258 257 256 254 255 255 256 257 259 260 261 261 261 262 264 267 266 266 263 264 267 272 271 269 268 267 266 267
266 264 263 262 261 260 259 257 256 255 254 254 252 253 254 255 257 257 259 259 259 262 262 263 265 264 264 263 262 263 265 267 270 271 272 271 266 263
264 262 260 260 258 257 256 254 254 255 253 252 252 251 253 254 256 258 258 259 261 262 262 261 262 263 263 263 263 263 264 265 266 265 266 270 271 272
Wind_Speed
6 6 4 3 4 4 3 4 5 3 3 4 4 4 3 1 4 3 4 12 17 17 17 18 18 19 20 20 22 23 24 25 26 25 25 25 25 26
7 9 6 4 6 4 5 3 2 3 2 1 2 1 3 4 8 8 8 14 14 16 18 19 19 21 22 23 24 24 26 27 27 27 27 26 26 27
9 10 9 8 6 5 4 3 4 4 4 1 2 3 5 4 7 8 10 10 8 18 20 21 23 24 24 24 24 26 27 28 29 29 30 30 28 28
13 11 10 7 8 7 5 7 6 6 3 4 2 2 4 3 8 8 7 7 7 13 19 24 25 24 25 26 27 27 28 29 29 30 30 31 31 31
14 14 12 12 10 8 8 8 5 5 4 4 2 3 5 4 6 7 7 5 5 13 19 19 20 21 24 27 28 29 29 31 31 31 32 32 31 31
14 13 13 14 13 12 8 8 6 7 4 4 4 5 5 5 4 5 6 5 7 8 12 12 17 18 21 26 27 28 29 30 32 33 32 32 33 33
13 13 12 12 18 15 9 10 9 6 5 4 4 4 3 2 4 5 7 9 8 6 7 6 10 10 11 18 20 25 27 29 31 32 33 33 34 34
15 12 11 14 18 21 19 18 14 9 6 5 4 4 3 3 4 6 7 9 7 2 11 12 11 10 11 9 21 28 31 33 33 33 34 35 36 36
16 14 12 10 12 12 19 19 18 19 14 9 6 4 2 3 5 7 8 9 8 11 12 13 9 12 11 11 24 29 31 33 34 35 37 37 37 35
17 18 17 17 16 15 15 13 10 7 6 5 4 4 5 5 7 5 7 7 9 9 8 11 8 13 11 10 28 32 31 32 34 35 36 36 37 35
15 16 16 16 23 26 13 12 10 8 11 14 13 13 10 11 8 3 3 3 7 5 6 8 5 14 13 14 12 23 29 28 30 36 37 36 36 36
13 15 22 19 27 29 15 13 11 9 8 3 0 3 2 5 9 3 3 3 5 6 2 5 11 10 10 4 8 14 12 21 32 34 36 38 39 22
11 12 11 25 26 27 21 11 9 9 9 6 4 2 3 3 3 4 4 4 7 10 9 8 8 12 10 16 13 13 14 14 14 17 28 36 39 35
14 11 12 26 25 24 18 19 18 10 5 4 2 2 2 1 3 4 7 8 10 15 13 11 11 12 15 17 21 16 14 15 14 15 15 23 34 38
9 15 23 26 25 21 21 19 8 6 5 3 3 2 1 3 6 6 9 12 13 14 11 12 13 15 14 18 20 20 21 17 14 15 13 15 15 16
16 12 16 17 15 9 7 10 6 5 5 3 2 1 1 3 4 5 8 8 9 9 10 13 15 16 17 14 17 22 17 18 16 15 15 17 16 17
15 12 11 8 9 6 5 5 4 5 5 3 2 1 2 3 5 6 7 8 8 11 12 10 13 16 16 20 20 17 20 20 16 17 17 19 17 17
13 12 12 11 10 9 8 7 6 6 5 4 2 1 2 3 6 6 7 7 9 10 12 12 11 14 14 16 24 19 17 19 17 17 17 20 20 14
11 11 10 11 10 9 8 7 7 6 6 4 2 1 2 4 7 7 8 8 9 11 11 12 12 12 16 20 15 18 19 17 19 19 16 17 22 17
10 12 11 10 9 9 9 7 7 7 6 5 3 2 1 3 6 7 7 9 10 12 13 11 11 12 14 19 23 21 27 20 17 20 18 17 21 37
14 12 10 10 9 8 7 6 6 5 5 4 2 3 3 3 6 7 9 12 14 12 15 14 13 21 16 17 18 20 17 28 29 22 21 20 20 19
10 11 10 9 9 8 7 6 5 5 4 3 3 3 3 5 7 7 9 10 10 11 14 15 15 13 13 15 20 27 22 19 24 32 35 35 20 24
9 9 9 9 7 6 6 5 4 4 4 4 2 3 5 5 6 7 9 10 11 12 14 16 14 13 14 16 21 21 30 26 20 19 17 29 36 41
Wind_Direction
171 162 153 164 149 144 133 143 149 189 265 206 170 157 138 103 349 342 324 323 329 329 328 326 323 324 323 322 318 315 314 311 306 303 299 298 297 296
169 166 165 157 154 150 161 144 132 141 203 276 305 35 46 358 340 336 321 326 318 321 323 319 321 322 323 322 318 315 313 312 310 308 304 301 298 294
169 173 170 157 155 148 144 148 158 157 172 298 301 348 344 348 323 316 315 313 310 317 318 317 319 322 321 318 316 314 313 310 309 307 303 300 298 295
174 171 170 161 161 157 161 171 168 173 152 195 280 260 236 254 276 273 263 258 260 283 304 313 318 317 317 314 313 312 310 306 302 301 299 295 292 292
175 175 171 165 174 178 169 168 166 170 177 173 216 233 250 246 261 252 249 264 281 302 300 306 305 307 308 307 308 308 306 303 301 299 298 295 289 288
176 176 170 179 177 171 175 172 165 171 172 195 217 238 234 237 247 294 319 326 319 302 298 304 308 304 301 298 299 296 295 294 294 294 292 289 287 283
175 175 177 172 176 174 172 177 171 168 168 179 223 224 235 307 332 322 322 317 318 291 314 321 315 303 293 296 293 292 289 284 284 285 285 283 281 280
174 173 171 171 188 183 188 191 182 173 164 176 199 218 278 315 305 321 316 324 345 134 330 312 305 294 290 291 294 293 292 291 288 285 282 281 278 277
170 170 165 169 173 179 193 193 195 198 189 183 203 210 248 252 295 306 309 308 298 307 315 299 302 289 293 293 292 293 292 290 289 287 285 280 277 276
173 174 173 169 179 181 184 195 199 200 208 225 203 222 225 259 247 277 325 310 297 289 300 286 309 291 293 288 293 294 294 291 289 285 281 279 278 275
169 172 173 173 183 185 175 180 189 204 222 226 230 237 259 295 307 353 307 331 308 295 302 280 286 301 297 286 277 284 296 297 305 302 298 294 281 275
170 174 177 175 184 186 176 175 185 198 198 182 255 282 308 289 294 275 170 202 273 306 124 322 309 322 309 266 292 296 281 290 291 291 289 288 281 277
174 173 182 185 187 189 182 179 189 174 200 139 163 195 239 230 255 258 247 230 248 251 274 296 297 298 276 301 292 292 296 289 283 281 283 284 281 280
181 174 168 181 187 190 189 191 198 139 128 119 123 240 235 229 263 270 276 261 253 260 280 280 273 281 284 285 291 295 289 287 284 284 280 281 279 277
176 167 165 179 182 191 190 195 147 141 131 124 191 212 250 289 296 300 285 276 268 268 271 270 271 279 274 279 282 288 298 293 281 275 274 270 277 270
163 157 166 172 174 138 160 170 156 145 144 161 176 190 317 295 296 285 283 286 287 289 284 279 273 277 279 271 283 288 286 280 287 280 277 272 266 266
154 157 162 149 148 145 151 143 148 144 151 155 158 151 309 309 287 280 283 285 285 298 299 289 281 274 276 282 284 277 287 285 281 284 280 276 266 264
160 169 165 164 165 157 164 157 167 160 148 146 154 202 267 292 283 285 282 277 284 287 292 295 296 296 288 271 257 280 279 283 288 283 278 279 278 267
166 167 165 161 161 163 164 163 158 152 140 146 170 225 294 287 290 289 284 283 284 285 284 286 295 293 298 293 295 279 291 290 291 284 276 268 275 276
166 162 163 168 157 161 158 160 156 153 147 157 161 201 220 254 280 277 281 287 288 292 288 290 285 285 287 292 297 296 282 286 286 285 284 273 270 271
155 161 162 160 157 161 154 146 148 143 142 150 158 183 219 224 257 269 278 285 287 284 293 296 292 291 287 288 287 286 289 286 286 287 289 282 278 275
164 148 148 147 149 153 146 147 141 144 154 156 192 179 229 230 258 271 281 286 281 285 293 294 299 297 295 291 291 294 298 297 291 286 281 277 276 270
149 145 138 136 137 136 141 145 143 151 154 168 160 213 222 249 257 266 277 278 277 299 300 301 303 301 293 295 294 297 298 304 306 304 287 285 280 272